Ty Croes, United Kingdom
Current Conditions -  °F | °C
As of 4:50 PM on Sunday 23 Nov 2014 (Local Time) from EGOV Reporting Station
Clear Clear  
Wind Chill: 38°   Ceiling: Unl
Heat Index: 43°   Visibility: 6mi
Dew Point: 36°   Wind: 8mph
Humidity: 76%   Direction: 290°WNW
Pressure: 30.12"   Gusts: NA
Location:  53.19°N, 4.46°W
Report Text: EGOV 231650Z AUTO 29007KT 9999 NCD 06/02 Q1020
Loading
Personal Weather Stations






























Interactive Weather Map New forecast layout! Learn more

10-Day Weather Forecast

Advertisements
Track Severe Weather on mobile